| time (UTC) | temp F | wind direction | speed MPH | gust MPH | rain 1hr in | rain 24hr in | rain mn in | humidity % | barometer mb |
| 20260903074544 | 61 | 0 | 0.0 | 0.0 | 0.00 | 0.00 | 0.00 | 73 | 1015.0 |
| 20260903073049 | 62 | 0 | 0.0 | 0.0 | 0.00 | 0.00 | 0.00 | 72 | 1015.0 |
| 20260903071548 | 63 | 0 | 0.0 | 2.0 | 0.00 | 0.00 | 0.00 | 70 | 1015.1 |
| 20260903070041 | 63 | 0 | 0.0 | 2.0 | 0.00 | 0.00 | 0.00 | 69 | 1015.0 |
| 20260903064541 | 63 | 0 | 0.0 | 0.0 | 0.00 | 0.00 | 0.00 | 69 | 1014.9 |
| 20260903063044 | 64 | 0 | 0.0 | 0.0 | 0.00 | 0.00 | 0.00 | 68 | 1015.0 |
| 20260903061551 | 64 | 0 | 0.0 | 0.0 | 0.00 | 0.00 | 0.00 | 67 | 1014.9 |
| 20260903060053 | 64 | 0 | 0.0 | 0.0 | 0.00 | 0.00 | 0.00 | 66 | 1015.0 |
| 20260903054549 | 65 | 0 | 0.0 | 0.0 | 0.00 | 0.00 | 0.00 | 65 | 1015.1 |
| 20260903053100 | 65 | 0 | 0.0 | 0.0 | 0.00 | 0.00 | 0.00 | 63 | 1015.2 |
| 20260903051543 | 66 | 193 | 0.0 | 2.0 | 0.00 | 0.00 | 0.00 | 63 | 1015.0 |
| 20260903050049 | 66 | 0 | 0.0 | 0.0 | 0.00 | 0.00 | 0.00 | 64 | 1014.8 |
| 20260903044552 | 65 | 0 | 0.0 | 0.0 | 0.00 | 0.00 | 0.00 | 66 | 1014.9 |
| 20260903043041 | 65 | 0 | 0.0 | 0.0 | 0.00 | 0.00 | 0.00 | 69 | 1015.0 |
| 20260903041548 | 66 | 0 | 0.0 | 0.0 | 0.00 | 0.00 | 0.00 | 68 | 1014.8 |
| 20260903040047 | 68 | 0 | 0.0 | 0.0 | 0.00 | 0.00 | 0.00 | 65 | 1014.6 |
| 20260903034542 | 69 | 0 | 0.0 | 0.0 | 0.00 | 0.00 | 0.00 | 60 | 1014.4 |
| 20260903033101 | 69 | 0 | 0.0 | 3.0 | 0.00 | 0.00 | 0.00 | 58 | 1014.3 |
| 20260903031544 | 70 | 0 | 0.0 | 4.0 | 0.00 | 0.00 | 0.00 | 59 | 1014.1 |
| 20260903030044 | 71 | 192 | 0.0 | 4.0 | 0.00 | 0.00 | 0.00 | 58 | 1014.1 |
| 20260903024545 | 72 | 192 | 2.0 | 5.0 | 0.00 | 0.00 | 0.00 | 57 | 1014.1 |
| 20260903023042 | 73 | 198 | 0.0 | 5.0 | 0.00 | 0.00 | 0.00 | 55 | 1014.3 |
| 20260903021553 | 74 | 0 | 0.0 | 5.0 | 0.00 | 0.00 | 0.00 | 53 | 1014.4 |
| 20260903020043 | 75 | 198 | 1.0 | 6.0 | 0.00 | 0.00 | 0.00 | 52 | 1014.3 |
| 20260903014547 | 76 | 198 | 2.0 | 8.0 | 0.00 | 0.00 | 0.00 | 50 | 1014.4 |
| 20260903013041 | 77 | 196 | 3.0 | 8.0 | 0.00 | 0.00 | 0.00 | 50 | 1014.4 |
| 20260903011544 | 77 | 205 | 2.0 | 7.0 | 0.00 | 0.00 | 0.00 | 48 | 1014.4 |
| 20260903010048 | 78 | 192 | 4.0 | 10.0 | 0.00 | 0.00 | 0.00 | 48 | 1014.4 |
| 20260903004547 | 78 | 171 | 1.0 | 8.0 | 0.00 | 0.00 | 0.00 | 48 | 1014.5 |
| 20260903003041 | 78 | 186 | 3.0 | 13.0 | 0.00 | 0.00 | 0.00 | 46 | 1014.6 |
| 20260903001542 | 79 | 183 | 4.0 | 9.0 | 0.00 | 0.00 | 0.00 | 45 | 1014.7 |
| 20260903000053 | 80 | 198 | 2.0 | 8.0 | 0.00 | 0.00 | 0.00 | 46 | 1014.9 |
| 20260902234546 | 80 | 194 | 4.0 | 15.0 | 0.00 | 0.00 | 0.00 | 46 | 1014.9 |
| 20260902233044 | 80 | 0 | 1.0 | 10.0 | 0.00 | 0.00 | 0.00 | 46 | 1014.9 |
| 20260902231549 | 80 | 204 | 4.0 | 9.0 | 0.00 | 0.00 | 0.00 | 46 | 1015.0 |
| 20260902230043 | 79 | 194 | 3.0 | 9.0 | 0.00 | 0.00 | 0.00 | 46 | 1015.1 |
| 20260902224543 | 80 | 201 | 2.0 | 8.0 | 0.00 | 0.00 | 0.00 | 45 | 1015.4 |
| 20260902223043 | 80 | 225 | 2.0 | 9.0 | 0.00 | 0.00 | 0.00 | 46 | 1015.3 |
| 20260902221603 | 79 | 174 | 4.0 | 10.0 | 0.00 | 0.00 | 0.00 | 47 | 1015.4 |
| 20260902220054 | 79 | 198 | 4.0 | 9.0 | 0.00 | 0.00 | 0.00 | 47 | 1015.5 |
| 20260902214540 | 79 | 0 | 2.0 | 8.0 | 0.00 | 0.00 | 0.00 | 48 | 1015.8 |
| 20260902213040 | 77 | 242 | 4.0 | 11.0 | 0.00 | 0.00 | 0.00 | 51 | 1015.9 |
| 20260902211547 | 77 | 208 | 2.0 | 8.0 | 0.00 | 0.00 | 0.00 | 52 | 1015.9 |
| 20260902210050 | 77 | 205 | 3.0 | 8.0 | 0.00 | 0.00 | 0.00 | 52 | 1016.2 |
| 20260902204545 | 76 | 190 | 3.0 | 7.0 | 0.00 | 0.00 | 0.00 | 53 | 1016.1 |
| 20260902203047 | 76 | 187 | 0.0 | 6.0 | 0.00 | 0.00 | 0.00 | 52 | 1016.3 |
| 20260902201549 | 76 | 0 | 0.0 | 9.0 | 0.00 | 0.00 | 0.00 | 53 | 1016.4 |
| 20260902200052 | 76 | 163 | 2.0 | 7.0 | 0.00 | 0.00 | 0.00 | 54 | 1016.6 |
| 20260902194546 | 74 | 161 | 2.0 | 7.0 | 0.00 | 0.00 | 0.00 | 56 | 1016.6 |
| 20260902193042 | 74 | 0 | 1.0 | 7.0 | 0.00 | 0.00 | 0.00 | 58 | 1016.8 |
| 20260902191543 | 74 | 0 | 2.0 | 7.0 | 0.00 | 0.00 | 0.00 | 57 | 1017.0 |
| 20260902190050 | 74 | 158 | 2.0 | 8.0 | 0.00 | 0.00 | 0.00 | 58 | 1017.1 |
| 20260902184541 | 75 | 0 | 1.0 | 7.0 | 0.00 | 0.00 | 0.00 | 56 | 1017.1 |
| 20260902183053 | 75 | 153 | 2.0 | 7.0 | 0.00 | 0.00 | 0.00 | 55 | 1017.1 |
| 20260902181540 | 75 | 147 | 1.0 | 5.0 | 0.00 | 0.00 | 0.00 | 56 | 1017.1 |
| 20260902180055 | 76 | 147 | 2.0 | 6.0 | 0.00 | 0.00 | 0.00 | 56 | 1017.1 |
| 20260902174544 | 75 | 144 | 1.0 | 5.0 | 0.00 | 0.00 | 0.00 | 57 | 1017.1 |
| 20260902173048 | 74 | 144 | 1.0 | 5.0 | 0.00 | 0.00 | 0.00 | 59 | 1017.2 |
| 20260902171556 | 71 | 142 | 1.0 | 8.0 | 0.00 | 0.00 | 0.00 | 64 | 1017.0 |
| 20260902170042 | 71 | 0 | 0.0 | 4.0 | 0.00 | 0.00 | 0.00 | 64 | 1016.8 |
| 20260902164557 | 67 | 128 | 1.0 | 7.0 | 0.00 | 0.00 | 0.00 | 68 | 1016.7 |
| 20260902163046 | 68 | 132 | 1.0 | 5.0 | 0.00 | 0.00 | 0.00 | 67 | 1016.6 |
| 20260902161553 | 67 | 0 | 1.0 | 4.0 | 0.00 | 0.00 | 0.00 | 68 | 1016.8 |
| 20260902160049 | 66 | 0 | 1.0 | 5.0 | 0.00 | 0.00 | 0.00 | 70 | 1016.9 |
| 20260902154603 | 64 | 135 | 1.0 | 4.0 | 0.00 | 0.00 | 0.00 | 73 | 1017.0 |
| 20260902153046 | 61 | 0 | 0.0 | 0.0 | 0.00 | 0.00 | 0.00 | 76 | 1017.0 |
| 20260902151541 | 60 | 0 | 0.0 | 0.0 | 0.00 | 0.00 | 0.00 | 78 | 1016.9 |
| 20260902150048 | 59 | 0 | 0.0 | 0.0 | 0.00 | 0.00 | 0.00 | 79 | 1016.8 |
| 20260902144548 | 59 | 0 | 0.0 | 0.0 | 0.00 | 0.00 | 0.00 | 80 | 1016.7 |
| 20260902143041 | 58 | 0 | 0.0 | 0.0 | 0.00 | 0.00 | 0.00 | 81 | 1016.4 |
| 20260902141541 | 57 | 0 | 0.0 | 0.0 | 0.00 | 0.00 | 0.00 | 82 | 1016.5 |
| 20260902140042 | 57 | 0 | 0.0 | 0.0 | 0.00 | 0.00 | 0.00 | 83 | 1016.5 |
| 20260902134543 | 57 | 0 | 0.0 | 0.0 | 0.00 | 0.00 | 0.00 | 83 | 1016.3 |
| 20260902133058 | 57 | 0 | 0.0 | 0.0 | 0.00 | 0.00 | 0.00 | 83 | 1016.0 |
| 20260902131548 | 57 | 0 | 0.0 | 0.0 | 0.00 | 0.00 | 0.00 | 82 | 1015.9 |
| 20260902130042 | 57 | 0 | 0.0 | 0.0 | 0.00 | 0.00 | 0.00 | 82 | 1015.8 |
| 20260902124541 | 58 | 0 | 0.0 | 0.0 | 0.00 | 0.00 | 0.00 | 82 | 1015.8 |
| 20260902123040 | 58 | 0 | 0.0 | 0.0 | 0.00 | 0.00 | 0.00 | 82 | 1015.9 |
| 20260902121545 | 59 | 0 | 0.0 | 1.0 | 0.00 | 0.00 | 0.00 | 82 | 1015.8 |
| 20260902120041 | 59 | 0 | 0.0 | 0.0 | 0.00 | 0.00 | 0.00 | 82 | 1015.8 |
| 20260902114546 | 59 | 0 | 0.0 | 0.0 | 0.00 | 0.00 | 0.00 | 82 | 1015.8 |
| 20260902113045 | 59 | 135 | 0.0 | 3.0 | 0.00 | 0.00 | 0.00 | 82 | 1015.8 |
| 20260902111541 | 59 | 135 | 1.0 | 4.0 | 0.00 | 0.00 | 0.00 | 81 | 1015.8 |
| 20260902110048 | 59 | 0 | 1.0 | 3.0 | 0.00 | 0.00 | 0.00 | 81 | 1015.8 |
| 20260902104548 | 59 | 0 | 0.0 | 3.0 | 0.00 | 0.00 | 0.00 | 80 | 1015.9 |
| 20260902103046 | 59 | 136 | 0.0 | 3.0 | 0.00 | 0.00 | 0.00 | 80 | 1016.0 |
| 20260902101545 | 59 | 136 | 1.0 | 3.0 | 0.00 | 0.00 | 0.00 | 80 | 1016.1 |
| 20260902100049 | 59 | 136 | 1.0 | 3.0 | 0.00 | 0.00 | 0.00 | 80 | 1016.1 |
| 20260902094544 | 59 | 0 | 0.0 | 0.0 | 0.00 | 0.00 | 0.00 | 80 | 1016.1 |
| 20260902093107 | 59 | 0 | 0.0 | 2.0 | 0.00 | 0.00 | 0.00 | 80 | 1016.2 |
| 20260902091553 | 59 | 0 | 0.0 | 2.0 | 0.00 | 0.00 | 0.00 | 80 | 1016.2 |
| 20260902090049 | 59 | 0 | 1.0 | 3.0 | 0.00 | 0.00 | 0.00 | 80 | 1016.1 |
| 20260902084552 | 59 | 136 | 1.0 | 3.0 | 0.00 | 0.00 | 0.00 | 80 | 1016.1 |
| 20260902083052 | 60 | 136 | 1.0 | 3.0 | 0.00 | 0.00 | 0.00 | 79 | 1016.1 |
| 20260902081602 | 60 | 0 | 1.0 | 4.0 | 0.00 | 0.00 | 0.00 | 79 | 1016.1 |
| 20260902080044 | 60 | 136 | 0.0 | 3.0 | 0.00 | 0.00 | 0.00 | 78 | 1016.0 |